| time (UTC) | temp F | wind direction | speed knots | gust knots | rain 1hr in | rain 24hr in | rain mn in | humidity % | barometer mb |
| 20260505231028 | 56 | 147 | 9.6 | 19.1 | 0.00 | 0.00 | 0.00 | 46 | 1012.6 |
| 20260505230524 | 57 | 119 | 7.0 | 23.5 | 0.00 | 0.00 | 0.00 | 45 | 1012.5 |
| 20260505230044 | 57 | 127 | 8.7 | 23.5 | 0.00 | 0.00 | 0.00 | 46 | 1012.6 |
| 20260505225525 | 57 | 136 | 8.7 | 17.4 | 0.00 | 0.00 | 0.00 | 46 | 1012.5 |
| 20260505225025 | 57 | 88 | 7.8 | 16.5 | 0.00 | 0.00 | 0.00 | 46 | 1012.5 |
| 20260505224546 | 57 | 92 | 8.7 | 16.5 | 0.00 | 0.00 | 0.00 | 45 | 1012.5 |
| 20260505224024 | 58 | 77 | 7.0 | 16.5 | 0.00 | 0.00 | 0.00 | 46 | 1012.5 |
| 20260505223525 | 58 | 123 | 7.0 | 17.4 | 0.00 | 0.00 | 0.00 | 45 | 1012.4 |
| 20260505223042 | 57 | 113 | 7.8 | 17.4 | 0.00 | 0.00 | 0.00 | 45 | 1012.5 |
| 20260505222526 | 58 | 87 | 10.4 | 17.4 | 0.00 | 0.00 | 0.00 | 43 | 1012.5 |
| 20260505222023 | 59 | 119 | 7.0 | 17.4 | 0.00 | 0.00 | 0.00 | 42 | 1012.5 |
| 20260505221549 | 59 | 119 | 7.8 | 17.4 | 0.00 | 0.00 | 0.00 | 42 | 1012.5 |
| 20260505221024 | 59 | 80 | 6.1 | 19.1 | 0.00 | 0.00 | 0.00 | 43 | 1012.5 |
| 20260505220524 | 60 | 110 | 7.8 | 19.1 | 0.00 | 0.00 | 0.00 | 41 | 1012.5 |
| 20260505220038 | 60 | 109 | 7.0 | 14.8 | 0.00 | 0.00 | 0.00 | 41 | 1012.6 |
| 20260505215526 | 60 | 163 | 6.1 | 18.2 | 0.00 | 0.00 | 0.00 | 41 | 1012.5 |
| 20260505215025 | 61 | 105 | 8.7 | 18.2 | 0.00 | 0.00 | 0.00 | 41 | 1012.5 |
| 20260505214539 | 60 | 69 | 7.8 | 18.2 | 0.00 | 0.00 | 0.00 | 42 | 1012.7 |
| 20260505214024 | 60 | 87 | 7.0 | 14.8 | 0.00 | 0.00 | 0.00 | 43 | 1012.7 |
| 20260505213524 | 60 | 106 | 7.0 | 16.5 | 0.00 | 0.00 | 0.00 | 44 | 1013.0 |
| 20260505213035 | 59 | 98 | 7.8 | 16.5 | 0.00 | 0.00 | 0.00 | 43 | 1013.0 |
| 20260505212525 | 61 | 111 | 7.8 | 16.5 | 0.00 | 0.00 | 0.00 | 41 | 1013.2 |
| 20260505212025 | 60 | 41 | 6.1 | 17.4 | 0.00 | 0.00 | 0.00 | 44 | 1013.2 |
| 20260505211609 | 60 | 150 | 7.0 | 17.4 | 0.00 | 0.00 | 0.00 | 43 | 1013.2 |
| 20260505211025 | 59 | 137 | 7.8 | 17.4 | 0.00 | 0.00 | 0.00 | 44 | 1013.4 |
| 20260505210524 | 60 | 123 | 9.6 | 14.8 | 0.00 | 0.00 | 0.00 | 43 | 1013.4 |
| 20260505210041 | 60 | 94 | 5.2 | 14.8 | 0.00 | 0.00 | 0.00 | 44 | 1013.3 |
| 20260505205526 | 60 | 99 | 7.8 | 14.8 | 0.00 | 0.00 | 0.00 | 44 | 1013.5 |
| 20260505205027 | 59 | 71 | 6.1 | 13.9 | 0.00 | 0.00 | 0.00 | 45 | 1013.6 |
| 20260505204553 | 58 | 135 | 7.0 | 20.9 | 0.00 | 0.00 | 0.00 | 46 | 1013.8 |
| 20260505204027 | 58 | 186 | 8.7 | 20.9 | 0.00 | 0.00 | 0.00 | 46 | 1014.0 |
| 20260505203525 | 57 | 136 | 7.8 | 14.8 | 0.00 | 0.00 | 0.00 | 46 | 1014.1 |
| 20260505203035 | 57 | 144 | 7.0 | 17.4 | 0.00 | 0.00 | 0.00 | 46 | 1014.1 |
| 20260505202524 | 58 | 120 | 7.8 | 18.2 | 0.00 | 0.00 | 0.00 | 46 | 1014.2 |
| 20260505202030 | 57 | 177 | 7.8 | 18.2 | 0.00 | 0.00 | 0.00 | 47 | 1014.3 |
| 20260505201542 | 58 | 144 | 7.8 | 15.6 | 0.00 | 0.00 | 0.00 | 48 | 1014.3 |
| 20260505201024 | 58 | 150 | 7.0 | 17.4 | 0.00 | 0.00 | 0.00 | 47 | 1014.2 |
| 20260505200524 | 57 | 110 | 7.0 | 17.4 | 0.00 | 0.00 | 0.00 | 48 | 1014.3 |
| 20260505200039 | 56 | 158 | 7.8 | 17.4 | 0.00 | 0.00 | 0.00 | 50 | 1014.1 |
| 20260505195524 | 56 | 163 | 9.6 | 17.4 | 0.00 | 0.00 | 0.00 | 51 | 1014.1 |
| 20260505195024 | 56 | 178 | 7.8 | 15.6 | 0.00 | 0.00 | 0.00 | 50 | 1014.0 |
| 20260505194538 | 56 | 104 | 7.8 | 15.6 | 0.00 | 0.00 | 0.00 | 50 | 1014.1 |
| 20260505194032 | 55 | 140 | 7.0 | 15.6 | 0.00 | 0.00 | 0.00 | 50 | 1014.1 |
| 20260505193523 | 55 | 139 | 7.0 | 17.4 | 0.00 | 0.00 | 0.00 | 49 | 1014.2 |
| 20260505193037 | 56 | 190 | 7.0 | 17.4 | 0.00 | 0.00 | 0.00 | 49 | 1014.2 |
| 20260505192522 | 56 | 190 | 7.0 | 16.5 | 0.00 | 0.00 | 0.00 | 48 | 1014.1 |
| 20260505192024 | 56 | 161 | 7.0 | 14.8 | 0.00 | 0.00 | 0.00 | 47 | 1014.2 |
| 20260505191536 | 57 | 155 | 4.3 | 14.8 | 0.00 | 0.00 | 0.00 | 46 | 1014.1 |
| 20260505191021 | 57 | 149 | 6.1 | 13.9 | 0.00 | 0.00 | 0.00 | 45 | 1014.2 |
| 20260505190522 | 57 | 117 | 6.1 | 13.0 | 0.00 | 0.00 | 0.00 | 45 | 1014.1 |
| 20260505190035 | 57 | 138 | 6.1 | 14.8 | 0.00 | 0.00 | 0.00 | 44 | 1014.1 |
| 20260505185524 | 57 | 113 | 7.0 | 14.8 | 0.00 | 0.00 | 0.00 | 45 | 1014.1 |
| 20260505185022 | 56 | 105 | 7.0 | 12.2 | 0.00 | 0.00 | 0.00 | 45 | 1014.1 |
| 20260505184542 | 56 | 107 | 5.2 | 12.2 | 0.00 | 0.00 | 0.00 | 43 | 1014.1 |
| 20260505184024 | 57 | 141 | 7.0 | 13.0 | 0.00 | 0.00 | 0.00 | 43 | 1014.2 |
| 20260505183528 | 58 | 121 | 7.0 | 13.0 | 0.00 | 0.00 | 0.00 | 42 | 1014.2 |
| 20260505183038 | 58 | 75 | 5.2 | 12.2 | 0.00 | 0.00 | 0.00 | 40 | 1014.3 |
| 20260505182524 | 58 | 138 | 4.3 | 12.2 | 0.00 | 0.00 | 0.00 | 40 | 1014.2 |
| 20260505182028 | 59 | 99 | 5.2 | 12.2 | 0.00 | 0.00 | 0.00 | 39 | 1014.1 |
| 20260505181555 | 59 | 165 | 2.6 | 10.4 | 0.00 | 0.00 | 0.00 | 38 | 1013.9 |
| 20260505181028 | 59 | 69 | 5.2 | 10.4 | 0.00 | 0.00 | 0.00 | 38 | 1014.1 |
| 20260505180524 | 59 | 62 | 4.3 | 10.4 | 0.00 | 0.00 | 0.00 | 38 | 1014.1 |
| 20260505180037 | 57 | 65 | 2.6 | 10.4 | 0.00 | 0.00 | 0.00 | 38 | 1014.2 |
| 20260505175524 | 56 | 90 | 2.6 | 10.4 | 0.00 | 0.00 | 0.00 | 39 | 1014.3 |
| 20260505175024 | 56 | 173 | 2.6 | 7.8 | 0.00 | 0.00 | 0.00 | 40 | 1014.3 |
| 20260505174538 | 56 | 146 | 3.5 | 7.0 | 0.00 | 0.00 | 0.00 | 39 | 1014.6 |
| 20260505174024 | 57 | 0 | 2.6 | 7.0 | 0.00 | 0.00 | 0.00 | 38 | 1014.7 |
| 20260505173523 | 57 | 78 | 0.9 | 7.0 | 0.00 | 0.00 | 0.00 | 39 | 1014.6 |
| 20260505173036 | 57 | 50 | 1.7 | 7.8 | 0.00 | 0.00 | 0.00 | 39 | 1014.6 |
| 20260505172524 | 57 | 66 | 1.7 | 7.8 | 0.00 | 0.00 | 0.00 | 39 | 1014.6 |
| 20260505172025 | 58 | 108 | 3.5 | 7.8 | 0.00 | 0.00 | 0.00 | 38 | 1014.5 |
| 20260505171542 | 57 | 88 | 0.9 | 7.8 | 0.00 | 0.00 | 0.00 | 39 | 1014.6 |
| 20260505171025 | 56 | 175 | 3.5 | 7.0 | 0.00 | 0.00 | 0.00 | 40 | 1014.6 |
| 20260505170524 | 55 | 0 | 0.9 | 6.1 | 0.00 | 0.00 | 0.00 | 40 | 1014.7 |
| 20260505170038 | 55 | 163 | 2.6 | 8.7 | 0.00 | 0.00 | 0.00 | 40 | 1014.6 |
| 20260505165524 | 54 | 67 | 4.3 | 9.6 | 0.00 | 0.00 | 0.00 | 41 | 1014.8 |
| 20260505165026 | 54 | 145 | 3.5 | 9.6 | 0.00 | 0.00 | 0.00 | 41 | 1014.9 |
| 20260505164538 | 54 | 190 | 2.6 | 7.0 | 0.00 | 0.00 | 0.00 | 42 | 1015.0 |
| 20260505164024 | 54 | 132 | 3.5 | 8.7 | 0.00 | 0.00 | 0.00 | 43 | 1015.0 |
| 20260505163526 | 53 | 131 | 5.2 | 8.7 | 0.00 | 0.00 | 0.00 | 43 | 1015.0 |
| 20260505163035 | 53 | 123 | 3.5 | 9.6 | 0.00 | 0.00 | 0.00 | 44 | 1015.1 |
| 20260505162524 | 53 | 156 | 5.2 | 9.6 | 0.00 | 0.00 | 0.00 | 45 | 1015.1 |
| 20260505162024 | 53 | 148 | 5.2 | 9.6 | 0.00 | 0.00 | 0.00 | 45 | 1015.1 |
| 20260505161548 | 52 | 174 | 4.3 | 9.6 | 0.00 | 0.00 | 0.00 | 46 | 1015.2 |
| 20260505161024 | 52 | 171 | 4.3 | 11.3 | 0.00 | 0.00 | 0.00 | 48 | 1015.2 |
| 20260505160526 | 51 | 183 | 4.3 | 11.3 | 0.00 | 0.00 | 0.00 | 48 | 1015.2 |
| 20260505153044 | 51 | 120 | 4.3 | 17.4 | 0.00 | 0.00 | 0.00 | 49 | 1015.2 |
| 20260505152523 | 51 | 153 | 6.1 | 17.4 | 0.00 | 0.00 | 0.00 | 48 | 1015.3 |
| 20260505152025 | 51 | 183 | 4.3 | 12.2 | 0.00 | 0.00 | 0.00 | 48 | 1015.2 |
| 20260505151536 | 51 | 105 | 5.2 | 12.2 | 0.00 | 0.00 | 0.00 | 47 | 1015.1 |
| 20260505151023 | 51 | 119 | 7.0 | 12.2 | 0.00 | 0.00 | 0.00 | 47 | 1015.2 |
| 20260505150524 | 52 | 111 | 4.3 | 13.0 | 0.00 | 0.00 | 0.00 | 48 | 1015.2 |
| 20260505140526 | 54 | 156 | 6.1 | 12.2 | 0.00 | 0.00 | 0.00 | 45 | 1015.4 |
| 20260505125024 | 49 | 196 | 2.6 | 7.0 | 0.00 | 0.00 | 0.00 | 45 | 1015.4 |
| 20260505124541 | 48 | 188 | 2.6 | 4.3 | 0.00 | 0.00 | 0.00 | 46 | 1015.6 |
| 20260505124026 | 48 | 176 | 0.9 | 4.3 | 0.00 | 0.00 | 0.00 | 45 | 1015.6 |
| 20260505123526 | 48 | 0 | 0.9 | 6.1 | 0.00 | 0.00 | 0.00 | 45 | 1015.6 |
| 20260505123048 | 48 | 191 | 2.6 | 6.1 | 0.00 | 0.00 | 0.00 | 46 | 1015.5 |
| 20260505122524 | 48 | 198 | 0.0 | 4.3 | 0.00 | 0.00 | 0.00 | 45 | 1015.5 |
| 20260505122028 | 48 | 0 | 0.0 | 7.0 | 0.00 | 0.00 | 0.00 | 45 | 1015.3 |
| 20260505121536 | 48 | 198 | 0.9 | 7.0 | 0.00 | 0.00 | 0.00 | 45 | 1015.2 |
| 20260505121026 | 48 | 194 | 2.6 | 7.0 | 0.00 | 0.00 | 0.00 | 45 | 1015.1 |
| 20260505120523 | 47 | 201 | 2.6 | 7.0 | 0.00 | 0.00 | 0.00 | 45 | 1015.0 |
| 20260505115525 | 48 | 213 | 0.9 | 5.2 | 0.00 | 0.00 | 0.00 | 44 | 1014.9 |
| 20260505115101 | 48 | 198 | 0.9 | 2.6 | 0.00 | 0.00 | 0.00 | 44 | 1014.8 |
| 20260505114539 | 48 | 0 | 0.0 | 1.7 | 0.00 | 0.00 | 0.00 | 43 | 1014.9 |
| 20260505114025 | 48 | 0 | 0.0 | 1.7 | 0.00 | 0.00 | 0.00 | 43 | 1015.0 |
| 20260505113525 | 49 | 0 | 0.0 | 3.5 | 0.00 | 0.00 | 0.00 | 42 | 1015.2 |
| 20260505113038 | 49 | 0 | 0.0 | 4.3 | 0.00 | 0.00 | 0.00 | 42 | 1015.2 |
| 20260505112524 | 49 | 192 | 1.7 | 4.3 | 0.00 | 0.00 | 0.00 | 42 | 1015.2 |
| 20260505112025 | 49 | 190 | 1.7 | 4.3 | 0.00 | 0.00 | 0.00 | 42 | 1015.2 |
| 20260505111538 | 50 | 176 | 1.7 | 4.3 | 0.00 | 0.00 | 0.00 | 41 | 1015.1 |
| 20260505111028 | 50 | 185 | 1.7 | 4.3 | 0.00 | 0.00 | 0.00 | 41 | 1015.2 |
| 20260505110525 | 50 | 180 | 1.7 | 3.5 | 0.00 | 0.00 | 0.00 | 41 | 1015.0 |
| 20260505102029 | 51 | 132 | 2.6 | 5.2 | 0.00 | 0.00 | 0.00 | 38 | 1014.7 |
| 20260505101540 | 51 | 178 | 1.7 | 4.3 | 0.00 | 0.00 | 0.00 | 38 | 1014.8 |
| 20260505101025 | 52 | 188 | 0.9 | 2.6 | 0.00 | 0.00 | 0.00 | 39 | 1014.7 |
| 20260505100525 | 52 | 0 | 0.9 | 6.1 | 0.00 | 0.00 | 0.00 | 38 | 1014.6 |
| 20260505100040 | 52 | 181 | 0.9 | 7.0 | 0.00 | 0.00 | 0.00 | 38 | 1014.6 |
| 20260505095523 | 52 | 162 | 2.6 | 7.0 | 0.00 | 0.00 | 0.00 | 38 | 1014.5 |
| 20260505095025 | 52 | 194 | 3.5 | 7.8 | 0.00 | 0.00 | 0.00 | 38 | 1014.6 |
| 20260505094536 | 52 | 172 | 4.3 | 7.8 | 0.00 | 0.00 | 0.00 | 38 | 1014.6 |
| 20260505094025 | 52 | 179 | 2.6 | 7.0 | 0.00 | 0.00 | 0.00 | 37 | 1014.7 |
| 20260505093524 | 52 | 170 | 2.6 | 6.1 | 0.00 | 0.00 | 0.00 | 38 | 1014.8 |
| 20260505093035 | 52 | 196 | 0.9 | 4.3 | 0.00 | 0.00 | 0.00 | 38 | 1014.8 |
| 20260505092526 | 52 | 196 | 1.7 | 5.2 | 0.00 | 0.00 | 0.00 | 38 | 1014.8 |
| 20260505092026 | 52 | 196 | 2.6 | 7.0 | 0.00 | 0.00 | 0.00 | 38 | 1014.7 |
| 20260505091535 | 53 | 194 | 2.6 | 7.0 | 0.00 | 0.00 | 0.00 | 38 | 1014.6 |
| 20260505091025 | 53 | 174 | 2.6 | 7.0 | 0.00 | 0.00 | 0.00 | 37 | 1014.6 |
| 20260505090524 | 53 | 192 | 2.6 | 7.0 | 0.00 | 0.00 | 0.00 | 37 | 1014.9 |
| 20260505090037 | 53 | 0 | 0.9 | 5.2 | 0.00 | 0.00 | 0.00 | 37 | 1014.9 |
| 20260505085526 | 53 | 210 | 0.9 | 5.2 | 0.00 | 0.00 | 0.00 | 36 | 1015.0 |
| 20260505085024 | 53 | 209 | 0.9 | 5.2 | 0.00 | 0.00 | 0.00 | 36 | 1014.9 |
| 20260505084541 | 53 | 207 | 1.7 | 5.2 | 0.00 | 0.00 | 0.00 | 36 | 1015.0 |
| 20260505084024 | 53 | 209 | 0.9 | 4.3 | 0.00 | 0.00 | 0.00 | 36 | 1015.0 |
| 20260505083526 | 53 | 209 | 0.9 | 4.3 | 0.00 | 0.00 | 0.00 | 36 | 1015.0 |
| 20260505083044 | 54 | 0 | 0.0 | 0.0 | 0.00 | 0.00 | 0.00 | 35 | 1015.2 |
| 20260505082526 | 54 | 0 | 0.0 | 2.6 | 0.00 | 0.00 | 0.00 | 35 | 1015.4 |
| 20260505082026 | 54 | 0 | 0.0 | 4.3 | 0.00 | 0.00 | 0.00 | 35 | 1015.6 |
| 20260505081536 | 54 | 183 | 0.9 | 7.8 | 0.00 | 0.00 | 0.00 | 34 | 1015.7 |
| 20260505081029 | 54 | 180 | 1.7 | 8.7 | 0.00 | 0.00 | 0.00 | 34 | 1015.9 |
| 20260505080529 | 55 | 163 | 4.3 | 8.7 | 0.00 | 0.00 | 0.00 | 34 | 1015.8 |
| 20260505080041 | 54 | 186 | 4.3 | 7.0 | 0.00 | 0.00 | 0.00 | 34 | 1015.6 |
| 20260505075523 | 54 | 175 | 2.6 | 6.1 | 0.00 | 0.00 | 0.00 | 35 | 1015.5 |
| 20260505075028 | 54 | 186 | 2.6 | 6.1 | 0.00 | 0.00 | 0.00 | 35 | 1015.5 |
| 20260505074536 | 54 | 184 | 1.7 | 5.2 | 0.00 | 0.00 | 0.00 | 35 | 1015.6 |
| 20260505074023 | 54 | 179 | 2.6 | 5.2 | 0.00 | 0.00 | 0.00 | 35 | 1015.7 |
| 20260505073525 | 54 | 194 | 0.9 | 4.3 | 0.00 | 0.00 | 0.00 | 35 | 1015.6 |
| 20260505073037 | 54 | 0 | 0.0 | 0.9 | 0.00 | 0.00 | 0.00 | 35 | 1015.4 |
| 20260505072525 | 55 | 0 | 0.0 | 1.7 | 0.00 | 0.00 | 0.00 | 35 | 1015.4 |
| 20260505072027 | 55 | 195 | 0.0 | 2.6 | 0.00 | 0.00 | 0.00 | 34 | 1015.2 |
| 20260505071535 | 55 | 195 | 0.0 | 3.5 | 0.00 | 0.00 | 0.00 | 34 | 1015.3 |
| 20260505071026 | 55 | 195 | 0.9 | 5.2 | 0.00 | 0.00 | 0.00 | 33 | 1015.2 |
| 20260505070528 | 56 | 196 | 1.7 | 5.2 | 0.00 | 0.00 | 0.00 | 33 | 1015.3 |
| 20260505070036 | 56 | 193 | 0.9 | 4.3 | 0.00 | 0.00 | 0.00 | 32 | 1015.3 |
| 20260505065524 | 56 | 188 | 1.7 | 5.2 | 0.00 | 0.00 | 0.00 | 32 | 1015.3 |
| 20260505065024 | 57 | 188 | 2.6 | 7.0 | 0.00 | 0.00 | 0.00 | 32 | 1015.3 |
| 20260505064549 | 57 | 138 | 3.5 | 7.8 | 0.00 | 0.00 | 0.00 | 32 | 1015.4 |
| 20260505064024 | 57 | 149 | 3.5 | 9.6 | 0.00 | 0.00 | 0.00 | 31 | 1015.3 |
| 20260505063523 | 57 | 167 | 5.2 | 12.2 | 0.00 | 0.00 | 0.00 | 31 | 1015.2 |
| 20260505063041 | 57 | 164 | 5.2 | 12.2 | 0.00 | 0.00 | 0.00 | 31 | 1015.2 |
| 20260505062526 | 57 | 159 | 4.3 | 10.4 | 0.00 | 0.00 | 0.00 | 31 | 1015.2 |
| 20260505062026 | 58 | 134 | 4.3 | 7.8 | 0.00 | 0.00 | 0.00 | 31 | 1015.3 |
| 20260505061539 | 58 | 146 | 3.5 | 11.3 | 0.00 | 0.00 | 0.00 | 31 | 1015.4 |
| 20260505061025 | 58 | 161 | 4.3 | 11.3 | 0.00 | 0.00 | 0.00 | 31 | 1015.2 |
| 20260505060525 | 58 | 136 | 5.2 | 11.3 | 0.00 | 0.00 | 0.00 | 31 | 1015.4 |
| 20260505060042 | 58 | 180 | 4.3 | 11.3 | 0.00 | 0.00 | 0.00 | 31 | 1015.5 |
| 20260505055524 | 58 | 148 | 5.2 | 13.0 | 0.00 | 0.00 | 0.00 | 32 | 1015.5 |
| 20260505055025 | 58 | 138 | 4.3 | 13.0 | 0.00 | 0.00 | 0.00 | 32 | 1015.5 |
| 20260505054548 | 57 | 150 | 2.6 | 7.0 | 0.00 | 0.00 | 0.00 | 33 | 1015.3 |
| 20260505054025 | 57 | 0 | 0.9 | 5.2 | 0.00 | 0.00 | 0.00 | 34 | 1015.3 |
| 20260505053525 | 57 | 0 | 0.9 | 5.2 | 0.00 | 0.00 | 0.00 | 34 | 1015.2 |
| 20260505053035 | 58 | 0 | 0.0 | 1.7 | 0.00 | 0.00 | 0.00 | 34 | 1015.2 |
| 20260505052522 | 58 | 0 | 0.0 | 1.7 | 0.00 | 0.00 | 0.00 | 34 | 1015.1 |
| 20260505052022 | 58 | 0 | 0.0 | 0.9 | 0.00 | 0.00 | 0.00 | 33 | 1015.2 |
| 20260505051535 | 58 | 0 | 0.0 | 7.8 | 0.00 | 0.00 | 0.00 | 33 | 1015.2 |
| 20260505051025 | 58 | 0 | 0.0 | 7.8 | 0.00 | 0.00 | 0.00 | 33 | 1015.1 |
| 20260505050524 | 58 | 165 | 3.5 | 7.8 | 0.00 | 0.00 | 0.00 | 32 | 1015.2 |
| 20260505041542 | 59 | 0 | 0.9 | 4.3 | 0.00 | 0.00 | 0.00 | 31 | 1015.4 |
| 20260505041023 | 59 | 196 | 1.7 | 5.2 | 0.00 | 0.00 | 0.00 | 30 | 1015.4 |
| 20260505040525 | 59 | 192 | 0.9 | 5.2 | 0.00 | 0.00 | 0.00 | 30 | 1015.4 |
| 20260505040040 | 59 | 190 | 1.7 | 6.1 | 0.00 | 0.00 | 0.00 | 30 | 1015.5 |
| 20260505035526 | 59 | 194 | 1.7 | 6.1 | 0.00 | 0.00 | 0.00 | 29 | 1015.5 |
| 20260505035024 | 59 | 191 | 2.6 | 7.8 | 0.00 | 0.00 | 0.00 | 29 | 1015.5 |
| 20260505034552 | 59 | 209 | 1.7 | 7.8 | 0.00 | 0.00 | 0.00 | 29 | 1015.4 |
| 20260505034025 | 60 | 190 | 3.5 | 7.8 | 0.00 | 0.00 | 0.00 | 28 | 1015.5 |
| 20260505033522 | 60 | 215 | 1.7 | 7.0 | 0.00 | 0.00 | 0.00 | 28 | 1015.3 |
| 20260505033039 | 60 | 171 | 1.7 | 7.0 | 0.00 | 0.00 | 0.00 | 27 | 1015.2 |
| 20260505032525 | 60 | 210 | 3.5 | 7.0 | 0.00 | 0.00 | 0.00 | 27 | 1015.2 |
| 20260505032026 | 60 | 201 | 2.6 | 7.0 | 0.00 | 0.00 | 0.00 | 27 | 1015.2 |
| 20260505031536 | 60 | 192 | 2.6 | 7.0 | 0.00 | 0.00 | 0.00 | 27 | 1015.1 |
| 20260505031023 | 61 | 181 | 1.7 | 7.0 | 0.00 | 0.00 | 0.00 | 26 | 1014.8 |
| 20260505030523 | 61 | 193 | 3.5 | 10.4 | 0.00 | 0.00 | 0.00 | 26 | 1014.8 |
| 20260505030047 | 61 | 202 | 4.3 | 11.3 | 0.00 | 0.00 | 0.00 | 25 | 1014.8 |
| 20260505025528 | 61 | 178 | 5.2 | 12.2 | 0.00 | 0.00 | 0.00 | 25 | 1014.6 |
| 20260505025023 | 61 | 178 | 4.3 | 12.2 | 0.00 | 0.00 | 0.00 | 25 | 1014.8 |
| 20260505024533 | 62 | 176 | 5.2 | 12.2 | 0.00 | 0.00 | 0.00 | 25 | 1014.6 |
| 20260505024024 | 62 | 175 | 4.3 | 9.6 | 0.00 | 0.00 | 0.00 | 25 | 1014.4 |
| 20260505023524 | 62 | 154 | 5.2 | 10.4 | 0.00 | 0.00 | 0.00 | 24 | 1014.3 |
| 20260505023044 | 62 | 184 | 5.2 | 10.4 | 0.00 | 0.00 | 0.00 | 24 | 1014.4 |
| 20260505022525 | 62 | 190 | 4.3 | 12.2 | 0.00 | 0.00 | 0.00 | 23 | 1014.3 |
| 20260505022024 | 62 | 192 | 5.2 | 12.2 | 0.00 | 0.00 | 0.00 | 23 | 1014.3 |
| 20260505021539 | 63 | 196 | 4.3 | 16.5 | 0.00 | 0.00 | 0.00 | 22 | 1014.3 |
| 20260505021026 | 63 | 180 | 7.8 | 18.2 | 0.00 | 0.00 | 0.00 | 22 | 1014.3 |
| 20260505020525 | 63 | 194 | 8.7 | 19.1 | 0.00 | 0.00 | 0.00 | 22 | 1014.3 |
| 20260505020053 | 63 | 192 | 9.6 | 19.1 | 0.00 | 0.00 | 0.00 | 22 | 1014.3 |
| 20260505015525 | 63 | 130 | 6.1 | 18.2 | 0.00 | 0.00 | 0.00 | 21 | 1014.3 |
| 20260505015025 | 63 | 177 | 7.0 | 16.5 | 0.00 | 0.00 | 0.00 | 21 | 1014.3 |
| 20260505014544 | 63 | 165 | 5.2 | 13.9 | 0.00 | 0.00 | 0.00 | 21 | 1014.1 |
| 20260505014024 | 64 | 148 | 7.0 | 20.0 | 0.00 | 0.00 | 0.00 | 20 | 1014.1 |
| 20260505013525 | 64 | 156 | 9.6 | 20.0 | 0.00 | 0.00 | 0.00 | 20 | 1014.0 |
| 20260505013040 | 64 | 171 | 7.0 | 17.4 | 0.00 | 0.00 | 0.00 | 20 | 1014.0 |
| 20260505012527 | 64 | 184 | 8.7 | 15.6 | 0.00 | 0.00 | 0.00 | 20 | 1013.9 |
| 20260505012024 | 64 | 160 | 6.1 | 15.6 | 0.00 | 0.00 | 0.00 | 20 | 1013.8 |
| 20260505011540 | 64 | 154 | 3.5 | 10.4 | 0.00 | 0.00 | 0.00 | 19 | 1013.7 |
| 20260505011023 | 65 | 160 | 5.2 | 17.4 | 0.00 | 0.00 | 0.00 | 19 | 1013.8 |
| 20260505010524 | 65 | 166 | 4.3 | 20.0 | 0.00 | 0.00 | 0.00 | 19 | 1013.8 |
| 20260505010035 | 65 | 189 | 7.8 | 20.9 | 0.00 | 0.00 | 0.00 | 19 | 1013.8 |
| 20260505005524 | 65 | 181 | 10.4 | 20.9 | 0.00 | 0.00 | 0.00 | 19 | 1013.9 |
| 20260505005025 | 65 | 142 | 6.1 | 16.5 | 0.00 | 0.00 | 0.00 | 19 | 1014.0 |
| 20260505004558 | 65 | 167 | 8.7 | 13.9 | 0.00 | 0.00 | 0.00 | 19 | 1014.0 |
| 20260505004024 | 65 | 134 | 7.8 | 17.4 | 0.00 | 0.00 | 0.00 | 19 | 1014.1 |
| 20260505003527 | 66 | 141 | 8.7 | 17.4 | 0.00 | 0.00 | 0.00 | 19 | 1014.1 |
| 20260505003036 | 66 | 142 | 6.1 | 13.0 | 0.00 | 0.00 | 0.00 | 19 | 1014.0 |
| 20260505002525 | 66 | 144 | 7.0 | 18.2 | 0.00 | 0.00 | 0.00 | 19 | 1013.9 |
| 20260505002024 | 66 | 190 | 7.8 | 18.2 | 0.00 | 0.00 | 0.00 | 18 | 1013.9 |
| 20260505001539 | 66 | 161 | 7.8 | 17.4 | 0.00 | 0.00 | 0.00 | 19 | 1014.0 |
| 20260505001029 | 66 | 178 | 8.7 | 17.4 | 0.00 | 0.00 | 0.00 | 19 | 1014.0 |
| 20260505000526 | 66 | 174 | 9.6 | 17.4 | 0.00 | 0.00 | 0.00 | 19 | 1014.2 |
| 20260505000037 | 66 | 161 | 7.0 | 20.0 | 0.00 | 0.00 | 0.00 | 19 | 1014.3 |
| 20260504235525 | 66 | 169 | 8.7 | 20.0 | 0.00 | 0.00 | 0.00 | 19 | 1014.3 |
| 20260504235025 | 66 | 142 | 7.0 | 16.5 | 0.00 | 0.00 | 0.00 | 20 | 1014.2 |
| 20260504234536 | 66 | 166 | 8.7 | 16.5 | 0.00 | 0.00 | 0.00 | 20 | 1014.4 |
| 20260504234023 | 66 | 144 | 6.1 | 12.2 | 0.00 | 0.00 | 0.00 | 20 | 1014.4 |
| 20260504233522 | 66 | 120 | 4.3 | 16.5 | 0.00 | 0.00 | 0.00 | 21 | 1014.3 |
| 20260504233039 | 66 | 141 | 8.7 | 16.5 | 0.00 | 0.00 | 0.00 | 20 | 1014.2 |
| 20260504232523 | 67 | 136 | 8.7 | 14.8 | 0.00 | 0.00 | 0.00 | 20 | 1014.3 |
| 20260504232023 | 67 | 157 | 6.1 | 16.5 | 0.00 | 0.00 | 0.00 | 20 | 1014.1 |
| 20260504231549 | 67 | 170 | 7.8 | 16.5 | 0.00 | 0.00 | 0.00 | 20 | 1014.1 |